Location: Blanot
(47.1713°N, 4.2340°E)
Time: 07:51:57
(UTC+00:00)

SL-16 R/B - Pass Details

Date: 14 July 2020
Orbit: 985 x 1007 km, 99.5° (Epoch: 14 August)

Event Time Altitude Azimuth Distance (km) Brightness Sun altitude
Exits shadow 01:57:01 21° 196° (SSW) 2,074 3.6 -15.4°
Maximum altitude 02:00:58 48° 261° (W) 1,295 2.9 -15.1°
Drops below altitude 10° 02:07:01 10° 335° (NNW) 2,792 5.3 -14.5°
Sets 02:09:38 0° 341° (NNW) 3,748 6.1 -14.3°
